Regional Weather Roundup
Issued by NWS Wakefield, VA

Home | Current Version | Previous Version | Text Only | Print | Product List | Glossary Off
Versions: 1 2 3 4 5 6 7 8 9 10 11 12 13 14 15 16 17 18 19 20 21 22 23 24 25 26 27 28 29 30 31 32 33 34 35 36 37 38 39 40 41 42 43 44 45 46 47 48 49 50

000
ASUS41 KAKQ 280815
RWRAKQ

REGIONAL WEATHER ROUNDUP
NATIONAL WEATHER SERVICE WAKEFIELD VA
400 AM EDT FRI APR 28 2017

Note: "fair" indicates few or no clouds below 12,000 feet with no
significant weather and/or obstructions to visibility. * = Denotes
station may not report precipitation (e.g., rain,snow,etc.),
thunder or fog.

VAZ042-051-052>054-056-280900-
NORTHERN VIRGINIA

CITY           SKY/WX    TMP DP  RH WIND       PRES   REMARKS
WASH NATIONAL  PTCLDY    67  61  81 S6        29.88R
DULLES         CLEAR     64  59  83 CALM      29.89R
FORT BELVOIR   CLEAR     68  59  72 CALM      29.87S
QUANTICO       CLEAR     66  64  93 S5        29.89R
FREDERICKSBRG* CLEAR     69  65  88 SW7       29.89R
STAFFORD*      CLEAR     65  62  91 CALM      29.93R
WARRENTON      CLEAR     61  56  85 CALM      29.89R
CULPEPER*      CLEAR     60  60  99 CALM      29.91R
MANASSAS*        N/A     63  60  90 CALM      29.89R
LEESBURG*      CLEAR     63  61  94 CALM      29.90R
WINCHESTER     CLEAR     61  57  88 SW5       29.91R
FRONT ROYAL*   SUNNY     64  59  82 SW7       29.90R
LURAY*         SUNNY     61  59  94 SW6       29.93R
$$

VAZ048-049-060>072-079>083-280900-
CENTRAL AND SOUTH CENTRAL VIRGINIA

CITY           SKY/WX    TMP DP  RH WIND       PRES   REMARKS
RICHMOND       CLOUDY    67  66  97 S8        29.92R
CHESTERFIELD*  FAIR     N/A N/A N/A CALM      29.93R
PETERSBURG*    CLOUDY    66  62  86 CALM      29.94R
HANOVER        CLOUDY    67  64  90 SW3       29.93R
TAPPAHANNOCK*  CLOUDY    67  67 100 S5        29.92S
QUINTON*       CLOUDY    68  67  96 CALM      29.92R
CHARLOTTSVILLE CLEAR     62  60  93 S3        29.91R FOG
GORDONSVILLE*  MOSUNNY   60  60  99 CALM      29.91R
ORANGE*        PTCLDY    59  59 100 SW6       29.90R
LOUISA*        MOCLDY    70  66  88 SW5       29.91R
BUMPASS*       FAIR      65  65 100 SW5       29.91R
FARMVILLE*     CLOUDY    65  65 100 CALM      29.92R FOG
CREWE*         PTSUNNY   65  65 100 CALM      29.93R
FORT PICKETT*  CLOUDY   N/A N/A N/A CALM      29.94R
CHASE CITY*    CLOUDY    65  64  94 CALM      29.94S
CLARKSVILLE*   CLOUDY    66  66 100 CALM      29.93R
SOUTH HILL*    CLOUDY    67  65  93 S5        29.99R
LAWRENCEVILLE* CLOUDY    68  64  86 CALM      29.93S
EMPORIA*       CLOUDY    68  63  83 CALM      29.95R
$$

VAZ088>098-280900-
SOUTHEAST VIRGINIA

CITY           SKY/WX    TMP DP  RH WIND       PRES   REMARKS
NORFOLK        CLOUDY    73  64  73 SW12      29.94R
VIRGINIA BEACH CLOUDY    71  63  75 SW8       29.94R
NORFOLK NAVAL  CLOUDY    72  64  76 S9        29.95R
WEST POINT*    CLOUDY    70  63  76 S3        29.93S
SALUDA*        PTSUNNY   71  65  82 S10       29.92R
NEWPORT NEWS   MOCLDY    71  64  78 SW7       29.93R
LANGLEY AFB    CLOUDY    71  65  80 S6        29.93R
FORT EUSTIS    CLOUDY    70  64  83 CALM      29.91R
WILLIAMSBURG*  PTCLDY    72  64  78 CALM      29.94S
HR EXEC AP*    FAIR      70  63  78 S6        29.93R
FRANKLIN*      MOCLDY    70  65  83 SW7       29.95R
US460-WAKEFLD  CLOUDY    67  65  93 CALM      29.94R
$$

VAZ020-022-025-037-045-280900-
WEST CENTRAL AND SOUTHWEST VIRGINIA

CITY           SKY/WX    TMP DP  RH WIND       PRES   REMARKS
STAUNTON*      CLEAR     54  53  99 CALM      29.96R FOG
WAYNESBORO*    SUNNY     57  57 100 CALM      29.95R
HOT SPRINGS VA CLOUDY    55  54  94 W12       30.01S FOG
LYNCHBURG      CLEAR     56  56 100 CALM      29.95R FOG
DANVILLE       CLOUDY    64  64 100 CALM      29.94S FOG
SOUTH BOSTON*  CLOUDY    64  63  95 CALM      29.94R VSB 3/4
MARTINSVILLE   FOG       59  58  97 CALM      29.98R VSB 3/4
ROANOKE        CLEAR     57  57 100 CALM      29.97R FOG
BLACKSBURG     FOG       56  55  97 CALM      30.01R VSB 1/4
DUBLIN*        FOG       54  52  92 CALM      30.00R VSB<1/4
MARION*        FOG       57  56  96 CALM      30.02S VSB 1/4
HILLSVILLE*    FOG       52  52 100 CALM      30.00R VSB<1/4
RICHLANDS*     CLOUDY    58  58  99 CALM      29.99R
WISE*          CLEAR     59  48  67 CALM      30.00R
ABINGDON*      FOG       58  58 100 CALM      29.98R VSB 1/2
$$

MDZ021>025-VAZ099-100-280900-
SOUTHERN MARYLAND AND THE DELMARVA PENINSULA

CITY           SKY/WX    TMP DP  RH WIND       PRES   REMARKS
PATUXENT RIVER TSTM      68  66  93 SW7       29.88R
BAY BRIDGE APT LGT RAIN  68  61  77 S6        29.88R
LEONARDTOWN    CLOUDY    64  63  94 SW6       29.91F
DOVER          DRIZZLE   70  59  68 SW14      29.87R
GEORGETOWN     CLOUDY    71  62  73 SW8       29.90S
EASTON         CLOUDY    68  64  85 SW8       29.92S
CAMBRIDGE        N/A     66  63  88 CALM      29.90R
SALISBURY      CLOUDY    69  64  84 SW12      29.90R
OCEAN CITY     CLOUDY    67  62  84 SW9       29.91S
WALLOPS ISLAND MOCLDY    63  63 100 S6        29.92S
ACCOMACK*      CLOUDY    72  64  76 SW9       29.93R
$$

NCZ012>017-030>032-280900-
NORTH CENTRAL AND EASTERN NORTH CAROLINA

CITY           SKY/WX    TMP DP  RH WIND       PRES   REMARKS
ROANOKE RAPIDS LGT RAIN  68  68 100 CALM      29.95R
RALEIGH        LGT RAIN  72  65  78 SW8       29.95R
ELIZABETH CITY CLOUDY    72  70  93 S9        29.95R
AHOSKIE*         N/A     70  66  88 S6        29.96R
EDENTON*       CLOUDY    72  69  90 S7        29.98R
CURRITUCK*     CLOUDY    72  69  92 SW5       29.97R
KILL DEVIL HLS CLOUDY    72  70  93 CALM      29.96S
MANTEO         CLOUDY    72  70  93 SW15      29.98S
CAPE HATTERAS  MOCLDY    73  70  90 SW10      30.00R FOG
TARBORO*       NOT AVBL
GOLDSBORO      MOCLDY    73  73 100 S9        29.95R
WASHINGTON     CLOUDY    72  70  94 S5        29.97R
GREENVILLE     CLOUDY    72  70  94 SW7       29.99R
NEW BERN       CLOUDY    74  72  93 SW14      29.99R
WILMINGTON     CLOUDY    75  72  90 S13G20    29.99R
$$

VAZ048-280900-
ELSEWHERE

CITY           SKY/WX    TMP DP  RH WIND       PRES   REMARKS
HARRISBURG PA  PTCLDY    61  60  97 CALM      29.86R FOG
BALTIMORE      CLOUDY    67  62  84 CALM      29.86S
ANNAPOLIS      LGT RAIN  66  62  87 CALM      29.86R
ANDREWS AFB    PTCLDY    67  60  76 SW7       29.87R
PHILADELPHIA   CLOUDY    66  62  87 S6        29.87R
HENDERSON NC   LGT RAIN  66  62  87 S7        29.94S
GREENSBORO     MOCLDY    66  66 100 SW3       29.94R FOG
ROCKY MOUNT    CLOUDY    71  70  96 S5        29.95R
$$

VAZ100-280900-
MARINE

STATION/POSITION TIME  TEMP    WIND        PRES    WAVE   SWELL
                       AIR SEA DIR/SP/G            HT/PER HT/PER
                 (UTC) (F)     (DEG/KT/KT) (MB)    (FT/S) (FT/S)
CAPE MAY NJ      0736   65 57  180/  5/  9 1011.6R
LEWES DE         0736   70 56  220/  8/ 12 1011.7S
15NM E FENWICK I 0750   56 52  200/ 12/ 14 1013.1S   5/ 9   3/ 9
OCEAN-CITY-INLET 0736   60 55  200/  9/ 11 1013.1S
WACHAPREAGUE VA  0736   68 68  180/  6/  9 1013.0R
THOMAS POINT MD  0800   67 58  210/ 14/ 15   N/A
GOOSES REEF MD   0800   64 55  220/ 10/ 10 1012.6    1/ 2
COVE POINT MD    0736   67     240/ 10/ 15 1012.6R
SOLOMONS ISLAND  0736   66 61  230/  6/  8   N/A
BISHOPS HEAD MD  0736   67 65  200/ 14/ 16 1012.9R
PINEY POINT MD   0736          240/  9/ 11   N/A
POTOMAC MD       0800   67 62  230/ 10/ 12 1011.3    1/ 2
CAMBRIDGE MD     0736   67 63                N/A
LEWISETTA VA     0736   71 66  230/ 10/ 12 1012.0R
RAPPAHANNOCK LGT 0736          180/ 11/ 12 1013.9R
STINGRAY PT      0800   68 64  240/  6/  8 1013.2    0
YORK RVR RNG VA  0736   69     220/ 13/ 14 1012.8R
YORKTOWN VA      0736   71 65  200/  4/  6 1013.2R
JAMESTOWN VA     0800   70 68   CALM  /  2   N/A     0
DOMINION TERM VA 0736   70     210/  6/  7 1013.8R
KIPTOPEKE VA     0736      63  170/  5/  6   N/A
CHES BAY BRIDGE  0736   71 63  220/ 12/ 16 1013.4R
CAPE HENRY VA    0736   72     200/  7/ 13   N/A
WILLOUBY STN VA  0736   71     200/ 10/ 11 1014.7R
S CRANEY ISL VA  0736   71     200/  7/ 10 1013.5R
CAPE HENRY BUOY  0742      63                N/A     3/ 8   2/11
1ST LANDING BUOY 0800   69 62              1014.0    1
CAPE CHARLES BUO 0751      62                N/A     3/ 9   2/11
64NM E OF VA BCH 0750   61 56  210/ 12/ 12 1015.5R   5/ 8   5/ 8
DUCK PIER NC     0736   73 57  210/ 14/ 18 1014.0R
44100 DUCK FRF   0735      62                N/A     4/ 8   2/11
44056 DUCK FRF   0730      59                N/A     3/12   2/12
OREGON INLET NC  0736   72 72  190/ 14/ 16 1014.8F
HATTERAS NC      0736   73 71  190/  5/ 11 1015.5R
DIAMOND SHLS NC  0750   77 77  190/ 19/ 21 1015.4F   5/ 8   3/ 8
CAPE LOOKOUT NC  0800   73     190/ 13/ 15 1015.2R
$$



USA.gov is the U.S. government's official web portal to all federal, state and local government web resources and services.